20050105,000026,88604,32.909736,-117.392852,15.611,33.157,0.478,1.095
20050105,000055,88634,32.909788,-117.392860,15.613,33.156,0.458,1.284
20050105,000126,88664,32.909850,-117.392847,15.616,33.155,0.458,1.384
20050105,000155,88693,32.909845,-117.392843,15.616,33.156,0.468,1.408
20050105,000226,88725,32.909846,-117.392817,15.616,33.155,0.458,1.384
20050105,000256,88755,32.909835,-117.392780,15.618,33.156,0.458,1.382
20050105,000326,88784,32.909818,-117.392737,15.620,33.154,0.487,1.441
20050105,000356,88814,32.909805,-117.392732,15.621,33.154,0.487,1.436
20050105,000426,88844,32.909830,-117.392732,15.621,33.155,0.487,1.426
20050105,000455,88873,32.909851,-117.392747,15.620,33.156,0.497,1.446
20050105,000526,88905,32.909886,-117.392747,15.620,33.157,0.487,1.418
20050105,000556,88934,32.909935,-117.392757,15.621,33.156,0.487,1.414
20050105,000626,88964,32.909956,-117.392778,15.621,33.160,0.478,1.391
20050105,000655,88994,32.909981,-117.392770,15.621,33.158,0.487,1.410
20050105,000725,89023,32.910001,-117.392773,15.621,33.159,0.478,1.389
20050105,000756,89055,32.910005,-117.392768,15.622,33.160,0.497,1.425
20050105,000826,89085,32.910018,-117.392785,15.623,33.160,0.478,1.379
20050105,000856,89114,32.910038,-117.392822,15.625,33.159,0.507,1.434
20050105,000925,89144,32.910073,-117.392833,15.624,33.160,0.497,1.406
20050105,000956,89174,32.910090,-117.392838,15.626,33.161,0.487,1.380
20050105,001027,89205,32.910115,-117.392820,15.627,33.159,0.497,1.401
20050105,001056,89235,32.910133,-117.392790,15.628,33.159,0.518,1.441
20050105,001127,89265,32.910123,-117.392775,15.629,33.159,0.487,1.373
20050105,001157,89296,32.910120,-117.392757,15.630,33.159,0.507,1.413
20050105,001227,89326,32.910101,-117.392743,15.633,33.158,0.507,1.409
20050105,001257,89355,32.910098,-117.392723,15.633,33.159,0.518,1.424
20050105,001326,89385,32.910085,-117.392700,15.635,33.159,0.518,1.420
20050105,001357,89415,32.910090,-117.392662,15.632,33.162,0.507,1.395
20050105,001427,89446,32.910073,-117.392640,15.633,33.163,0.507,1.391
20050105,001457,89476,32.910073,-117.392607,15.634,33.163,0.507,1.390
20050105,001526,89504,32.910065,-117.392563,15.633,33.165,0.528,1.427
20050105,001557,89535,32.910053,-117.392543,15.633,33.164,0.518,1.400
20050105,001627,89565,32.910073,-117.392542,15.633,33.165,0.538,1.435
20050105,001657,89595,32.910103,-117.392550,15.634,33.164,0.518,1.390
20050105,001727,89626,32.910140,-117.392568,15.635,33.164,0.507,1.365
20050105,001756,89654,32.910158,-117.392593,15.634,33.166,0.538,1.426
20050105,001827,89685,32.910170,-117.392642,15.633,33.166,0.507,1.358
20050105,001857,89715,32.910188,-117.392722,15.635,33.167,0.507,1.351
20050105,001926,89745,32.910203,-117.392817,15.635,33.167,0.518,1.361
20050105,001957,89775,32.910253,-117.392940,15.637,33.168,0.528,1.380
20050105,002027,89806,32.910298,-117.393033,15.637,33.167,0.528,1.378
20050105,002056,89834,32.910343,-117.393103,15.639,33.167,0.518,1.359
20050105,002127,89865,32.910381,-117.393138,15.640,33.167,0.518,1.349
20050105,002157,89895,32.910383,-117.393178,15.641,33.167,0.518,1.346
20050105,002227,89925,32.910391,-117.393190,15.643,33.166,0.569,1.436
20050105,002257,89956,32.910388,-117.393220,15.644,33.167,0.518,1.326
20050105,002327,89986,32.910398,-117.393268,15.645,33.166,0.518,1.306
20050105,002358,90016,32.910410,-117.393330,15.645,33.167,0.507,1.301
20050105,002427,90045,32.910421,-117.393378,15.646,33.169,0.507,1.290
20050105,002458,90077,32.910455,-117.393438,15.647,33.170,0.497,1.263
20050105,002527,90105,32.910490,-117.393473,15.646,33.171,0.518,1.304
20050105,002557,90136,32.910516,-117.393500,15.647,33.173,0.518,1.298
20050105,002627,90166,32.910518,-117.393517,15.650,33.169,0.507,1.272
20050105,002657,90195,32.910521,-117.393522,15.649,33.171,0.518,1.278
20050105,002728,90227,32.910505,-117.393520,15.652,33.169,0.518,1.285
20050105,002758,90257,32.910488,-117.393513,15.651,33.172,0.528,1.277
20050105,002827,90286,32.910481,-117.393512,15.653,33.171,0.528,1.283
20050105,002857,90316,32.910458,-117.393532,15.654,33.171,0.518,1.268
20050105,002928,90346,32.910468,-117.393563,15.653,33.172,0.518,1.263
20050105,002957,90375,32.910496,-117.393595,15.655,33.171,0.528,1.285
20050105,003028,90407,32.910520,-117.393623,15.654,33.173,0.518,1.258
20050105,003058,90437,32.910528,-117.393647,15.652,33.175,0.518,1.232
20050105,003128,90466,32.910541,-117.393702,15.652,33.175,0.528,1.256
20050105,003158,90496,32.910581,-117.393803,15.649,33.178,0.518,1.235
20050105,003229,90527,32.910598,-117.393917,15.657,33.172,0.559,1.301
20050105,003258,90557,32.910613,-117.394018,15.654,33.175,0.528,1.232
20050105,003328,90587,32.910645,-117.394067,15.652,33.175,0.518,1.220
20050105,003359,90618,32.910638,-117.394115,15.652,33.177,0.507,1.198
20050105,003429,90648,32.910631,-117.394112,15.652,33.176,0.538,1.237
20050105,003458,90676,32.910608,-117.394097,15.652,33.177,0.518,1.205
20050105,003529,90707,32.910583,-117.394043,15.654,33.177,0.518,1.198
20050105,003559,90737,32.910543,-117.393997,15.657,33.175,0.497,1.151
20050105,003629,90767,32.910493,-117.393937,15.655,33.176,0.528,1.134
20050105,003659,90798,32.910478,-117.393895,15.654,33.178,0.528,1.144
20050105,003728,90826,32.910493,-117.393902,15.652,33.179,0.528,1.191
20050105,003758,90856,32.910515,-117.393922,15.654,33.179,0.538,1.212
20050105,003829,90887,32.910526,-117.393905,15.657,33.177,0.528,1.186
20050105,003859,90917,32.910515,-117.393905,15.647,33.183,0.518,1.157
20050105,003930,90948,32.910503,-117.393883,15.646,33.185,0.538,1.184
20050105,004000,90978,32.910483,-117.393852,15.646,33.185,0.538,1.191
20050105,004030,91008,32.910456,-117.393820,15.648,33.183,0.559,1.224
20050105,004100,91039,32.910418,-117.393795,15.649,33.180,0.528,1.170
20050105,004130,91069,32.910391,-117.393795,15.650,33.180,0.528,1.167
20050105,004200,91099,32.910401,-117.393812,15.652,33.177,0.518,1.148
20050105,004230,91128,32.910390,-117.393837,15.652,33.179,0.538,1.177
20050105,004300,91158,32.910395,-117.393838,15.650,33.179,0.538,1.172
20050105,004330,91188,32.910380,-117.393830,15.650,33.180,0.528,1.152
20050105,004400,91219,32.910360,-117.393802,15.647,33.183,0.538,1.160
20050105,004430,91249,32.910351,-117.393780,15.647,33.184,0.528,1.143
20050105,004500,91278,32.910343,-117.393808,15.647,33.184,0.528,1.140
20050105,004530,91308,32.910341,-117.393832,15.646,33.185,0.528,1.138
20050105,004600,91338,32.910350,-117.393845,15.645,33.185,0.538,1.151
20050105,004629,91367,32.910336,-117.393842,15.645,33.185,0.538,1.148
20050105,004700,91399,32.910298,-117.393835,15.645,33.184,0.538,1.144
20050105,004730,91429,32.910311,-117.393822,15.645,33.184,0.528,1.124
20050105,004800,91458,32.910313,-117.393802,15.646,33.181,0.528,1.122
20050105,004830,91488,32.910283,-117.393765,15.645,33.184,0.528,1.119
20050105,004900,91518,32.910206,-117.393793,15.645,33.184,0.528,1.117
20050105,004930,91549,32.910196,-117.393773,15.644,33.183,0.538,1.130
20050105,005000,91579,32.910163,-117.393857,15.643,33.185,0.528,1.108
20050105,005031,91609,32.910158,-117.393918,15.641,33.187,0.518,1.086
20050105,005101,91640,32.910153,-117.393943,15.637,33.187,0.559,1.147
20050105,005130,91668,32.910216,-117.394073,15.641,33.186,0.538,1.114
20050105,005200,91698,32.910305,-117.394182,15.638,33.187,0.549,1.130
20050105,005230,91729,32.910370,-117.394340,15.635,33.188,0.538,1.113
20050105,005300,91759,32.910401,-117.394502,15.636,33.187,0.528,1.096
20050105,005330,91788,32.910470,-117.394790,15.629,33.191,0.549,1.128
20050105,005400,91818,32.910523,-117.395032,15.628,33.192,0.518,1.079
20050105,005430,91848,32.910595,-117.395283,15.625,33.193,0.528,1.095
20050105,005501,91879,32.910651,-117.395542,15.628,33.189,0.528,1.094
20050105,005531,91909,32.910710,-117.395800,15.626,33.190,0.569,1.156
20050105,005601,91939,32.910753,-117.396010,15.627,33.187,0.528,1.093
20050105,005630,91968,32.910746,-117.396182,15.625,33.188,0.538,1.108
20050105,005701,92000,32.910760,-117.396333,15.622,33.190,0.507,1.061
20050105,005731,92029,32.910773,-117.396447,15.621,33.189,0.655,1.283
20050105,005801,92059,32.910770,-117.396560,15.620,33.189,0.518,1.075
20050105,005830,92089,32.910761,-117.396653,15.622,33.188,0.518,1.075
20050105,005901,92120,32.910753,-117.396790,15.622,33.187,0.507,1.059
20050105,005931,92150,32.910773,-117.396930,15.623,33.184,0.507,1.059
20050105,010001,92180,32.910820,-117.397083,15.620,33.186,0.538,1.105
20050105,010031,92209,32.910875,-117.397240,15.621,33.186,0.518,1.074
20050105,010101,92239,32.910931,-117.397382,15.620,33.186,0.518,1.073
20050105,010131,92269,32.910966,-117.397528,15.618,33.187,0.538,1.104
20050105,010201,92300,32.910978,-117.397658,15.613,33.188,0.518,1.073
20050105,010231,92330,32.910981,-117.397783,15.616,33.187,0.518,1.072
20050105,010301,92360,32.910980,-117.397880,15.616,33.187,0.528,1.088
20050105,010331,92389,32.910980,-117.397975,15.620,33.185,0.507,1.056
20050105,010401,92419,32.910945,-117.398087,15.621,33.180,0.507,1.056
20050105,010431,92449,32.910923,-117.398205,15.624,33.179,0.528,1.087
20050105,010501,92480,32.910940,-117.398355,15.625,33.178,0.518,1.071
20050105,010531,92510,32.910968,-117.398512,15.628,33.178,0.528,1.086
20050105,010601,92539,32.911046,-117.398672,15.627,33.179,0.507,1.055
20050105,010631,92569,32.911130,-117.398858,15.628,33.179,0.497,1.039
20050105,010701,92599,32.911203,-117.399080,15.631,33.176,0.507,1.055
20050105,010731,92630,32.911261,-117.399302,15.635,33.175,0.497,1.039
20050105,010801,92660,32.911310,-117.399475,15.635,33.177,0.487,1.023
20050105,010831,92690,32.911325,-117.399632,15.636,33.175,0.458,0.978
20050105,010901,92719,32.911365,-117.399742,15.637,33.177,0.478,1.008
20050105,010931,92749,32.911368,-117.399862,15.635,33.178,0.468,0.993
20050105,011002,92780,32.911396,-117.399988,15.633,33.180,0.497,1.038
20050105,011031,92810,32.911446,-117.400122,15.632,33.181,0.458,0.977
20050105,011102,92840,32.911471,-117.400370,15.633,33.181,0.468,0.992
20050105,011132,92870,32.911438,-117.400688,15.628,33.186,0.468,0.992
20050105,011202,92901,32.911355,-117.401102,15.630,33.183,0.478,1.008
20050105,011231,92929,32.911231,-117.401528,15.626,33.186,0.478,1.008
20050105,011302,92960,32.911041,-117.402002,15.625,33.187,0.458,0.977
20050105,011332,92990,32.910806,-117.402428,15.624,33.188,0.468,0.992
20050105,011401,93020,32.910536,-117.402857,15.621,33.190,0.497,1.037
20050105,011432,93051,32.910211,-117.403287,15.619,33.191,0.458,0.977
20050105,011502,93081,32.909900,-117.403642,15.621,33.187,0.478,1.007
20050105,011532,93111,32.909608,-117.403948,15.622,33.189,0.458,0.976
20050105,011602,93140,32.909351,-117.404262,15.617,33.190,0.448,0.961
20050105,011631,93170,32.909113,-117.404483,15.623,33.187,0.468,0.992
20050105,011702,93200,32.908876,-117.404718,15.616,33.191,0.458,0.976
20050105,011732,93231,32.908655,-117.404957,15.614,33.191,0.487,1.022
20050105,011802,93261,32.908420,-117.405182,15.618,33.189,0.497,1.037
20050105,011831,93289,32.908165,-117.405450,15.616,33.190,0.458,0.976
20050105,011902,93320,32.907923,-117.405727,15.616,33.188,0.458,0.976
20050105,011932,93350,32.907716,-117.405917,15.616,33.189,0.487,1.021
20050105,012002,93381,32.907545,-117.406098,15.613,33.192,0.468,0.992
20050105,012032,93411,32.907281,-117.406385,15.613,33.187,0.478,1.007
20050105,012102,93441,32.907020,-117.406685,15.613,33.187,0.468,0.992
20050105,012132,93470,32.906770,-117.406933,15.610,33.191,0.458,0.976
20050105,012202,93500,32.906596,-117.407158,15.608,33.189,0.448,0.961
20050105,012232,93530,32.906435,-117.407318,15.609,33.188,0.458,0.976
20050105,012302,93561,32.906315,-117.407475,15.610,33.188,0.468,0.992
20050105,012331,93589,32.906191,-117.407563,15.608,33.188,0.448,0.961
20050105,012402,93621,32.906090,-117.407648,15.609,33.187,0.468,0.992
20050105,012432,93650,32.905970,-117.407702,15.606,33.189,0.468,0.991
20050105,012502,93680,32.905843,-117.407762,15.606,33.188,0.468,0.991
20050105,012532,93710,32.905666,-117.407848,15.606,33.188,0.468,0.991
20050105,012602,93741,32.905496,-117.407993,15.608,33.184,0.458,0.976
20050105,012632,93771,32.905288,-117.408117,15.606,33.187,0.468,0.991
20050105,012702,93800,32.905091,-117.408255,15.606,33.187,0.458,0.976
20050105,012732,93830,32.904890,-117.408407,15.608,33.183,0.448,0.961
20050105,012802,93860,32.904701,-117.408547,15.610,33.182,0.458,0.976
20050105,012833,93891,32.904518,-117.408668,15.608,33.183,0.487,1.021
20050105,012903,93921,32.904365,-117.408758,15.608,33.182,0.468,0.991
20050105,012932,93951,32.904215,-117.408830,15.608,33.188,0.478,1.007
20050105,013002,93980,32.904051,-117.408898,15.606,33.184,0.448,0.961
20050105,013033,94012,32.903891,-117.408968,15.607,33.182,0.458,0.976
20050105,013103,94041,32.903728,-117.409065,15.608,33.182,0.448,0.961
20050105,013132,94071,32.903578,-117.409153,15.606,33.182,0.468,0.991
20050105,013202,94101,32.903403,-117.409267,15.606,33.182,0.448,0.961
20050105,013233,94131,32.903223,-117.409373,15.604,33.182,0.468,0.991
20050105,013303,94162,32.903043,-117.409465,15.604,33.182,0.458,0.976
20050105,013332,94190,32.902893,-117.409555,15.604,33.183,0.497,1.037
20050105,013402,94220,32.902705,-117.409660,15.604,33.183,0.448,0.961
20050105,013432,94251,32.902536,-117.409777,15.604,33.180,0.448,0.961
20050105,013502,94281,32.902363,-117.409893,15.603,33.181,0.458,0.976
20050105,013533,94312,32.902175,-117.410015,15.603,33.180,0.468,0.991
20050105,013602,94340,32.901998,-117.410152,15.602,33.180,0.448,0.961
20050105,013633,94372,32.901818,-117.410290,15.601,33.181,0.458,0.976
20050105,013703,94401,32.901643,-117.410375,15.602,33.180,0.458,0.976
20050105,013733,94431,32.901493,-117.410452,15.604,33.177,0.487,1.021
20050105,013803,94461,32.901373,-117.410525,15.603,33.177,0.468,0.991
20050105,013833,94492,32.901261,-117.410578,15.604,33.177,0.458,0.976
20050105,013903,94522,32.901116,-117.410615,15.601,33.176,0.458,0.976
20050105,013933,94551,32.900985,-117.410712,15.602,33.176,0.448,0.961
20050105,014003,94581,32.900843,-117.410860,15.604,33.175,0.448,0.961
20050105,014033,94611,32.900698,-117.411033,15.604,33.176,0.458,0.976
20050105,014103,94642,32.900530,-117.411213,15.603,33.176,0.468,0.991
20050105,014133,94672,32.900335,-117.411410,15.601,33.177,0.478,1.007
20050105,014203,94702,32.900155,-117.411613,15.601,33.176,0.468,0.991
20050105,014233,94731,32.899965,-117.411833,15.603,33.174,0.458,0.976
20050105,014303,94761,32.899771,-117.412048,15.604,33.172,0.458,0.976
20050105,014333,94791,32.899570,-117.412280,15.604,33.171,0.468,0.991
20050105,014403,94822,32.899401,-117.412495,15.605,33.173,0.458,0.976
20050105,014434,94852,32.899243,-117.412668,15.606,33.170,0.468,0.991
20050105,014503,94882,32.899068,-117.412830,15.607,33.169,0.468,0.991
20050105,014533,94911,32.898776,-117.413160,15.607,33.169,0.458,0.976
20050105,014604,94943,32.898483,-117.413652,15.608,33.167,0.448,0.961
20050105,014633,94971,32.898171,-117.414205,15.608,33.168,0.458,0.976
20050105,014703,95002,32.897796,-117.414775,15.607,33.167,0.448,0.961
20050105,014733,95032,32.897365,-117.415493,15.604,33.171,0.478,1.007
20050105,014803,95061,32.896895,-117.416307,15.603,33.172,0.438,0.946
20050105,014834,95093,32.896415,-117.417185,15.604,33.171,0.478,1.007
20050105,014904,95123,32.895930,-117.418061,15.602,33.171,0.448,0.961
20050105,014934,95152,32.895388,-117.419043,15.602,33.171,0.468,0.991
20050105,015004,95182,32.894831,-117.420108,15.601,33.171,0.478,1.007
20050105,015034,95212,32.894233,-117.421188,15.600,33.172,0.468,0.991
20050105,015103,95241,32.893675,-117.422228,15.594,33.179,0.468,0.991
20050105,015134,95273,32.893076,-117.423345,15.594,33.174,0.468,0.991
20050105,015204,95302,32.892466,-117.424465,15.594,33.172,0.458,0.976
20050105,015234,95332,32.891858,-117.425598,15.594,33.173,0.478,1.007
20050105,015304,95362,32.891253,-117.426720,15.591,33.174,0.428,0.931
20050105,015335,95393,32.890603,-117.427896,15.589,33.173,0.458,0.976
20050105,015404,95423,32.889911,-117.429201,15.587,33.173,0.448,0.961
20050105,015434,95453,32.889191,-117.430575,15.587,33.173,0.458,0.976
20050105,015504,95482,32.888450,-117.431968,15.584,33.175,0.438,0.946
20050105,015534,95512,32.887718,-117.433363,15.577,33.182,0.468,0.991
20050105,015605,95544,32.886956,-117.434825,15.568,33.182,0.478,1.007
20050105,015634,95573,32.886210,-117.436180,15.558,33.189,0.487,1.021
20050105,015705,95603,32.885468,-117.437586,15.544,33.197,0.518,1.068
20050105,015734,95633,32.884700,-117.439011,15.532,33.204,0.507,1.052
20050105,015804,95662,32.883950,-117.440445,15.518,33.211,0.549,1.115
20050105,015834,95692,32.883196,-117.441885,15.501,33.221,0.538,1.099
20050105,015904,95722,32.882436,-117.443310,15.496,33.223,0.559,1.131
20050105,015934,95753,32.881680,-117.444718,15.484,33.229,0.590,1.177
20050105,020004,95783,32.880876,-117.446190,15.472,33.229,0.601,1.193
20050105,020034,95812,32.880141,-117.447630,15.467,33.229,0.612,1.209
20050105,020104,95842,32.879393,-117.449058,15.463,33.223,0.612,1.209
20050105,020134,95872,32.878650,-117.450471,15.462,33.217,0.633,1.242
20050105,020204,95903,32.877915,-117.451878,15.461,33.211,0.633,1.242
20050105,020234,95933,32.877151,-117.453278,15.462,33.203,0.666,1.289
20050105,020305,95963,32.876413,-117.454710,15.459,33.203,0.688,1.322
20050105,020335,95994,32.875645,-117.456171,15.455,33.201,0.699,1.339
20050105,020405,96024,32.874900,-117.457591,15.457,33.197,0.766,1.437
20050105,020434,96052,32.874168,-117.458925,15.464,33.187,0.835,1.538
20050105,020505,96083,32.873406,-117.460398,15.473,33.177,0.882,1.607
20050105,020535,96113,32.872680,-117.461768,15.478,33.172,0.941,1.693
20050105,020605,96144,32.871900,-117.463228,15.497,33.154,0.965,1.728
20050105,020634,96172,32.871168,-117.464603,15.506,33.146,0.894,1.624
20050105,020704,96202,32.870406,-117.466020,15.545,33.117,0.835,1.538
20050105,020734,96232,32.869661,-117.467435,15.540,33.123,0.800,1.488
20050105,020804,96263,32.868891,-117.468836,15.575,33.102,0.777,1.454
20050105,020834,96293,32.868143,-117.470265,15.574,33.107,0.812,1.505
20050105,020905,96324,32.867350,-117.471728,15.576,33.113,0.835,1.538
20050105,020935,96354,32.866578,-117.473155,15.574,33.117,0.800,1.488
20050105,021005,96384,32.865825,-117.474570,15.575,33.123,0.824,1.522
20050105,021035,96413,32.865088,-117.475928,15.578,33.127,0.777,1.454
20050105,021105,96443,32.864295,-117.477390,15.579,33.128,0.766,1.437
20050105,021135,96473,32.863546,-117.478793,15.582,33.129,0.754,1.421
20050105,021205,96504,32.862783,-117.480206,15.589,33.126,0.824,1.522
20050105,021236,96534,32.862020,-117.481606,15.582,33.137,0.858,1.572
20050105,021305,96563,32.861265,-117.483021,15.599,33.125,0.990,1.764
20050105,021335,96593,32.860600,-117.484476,15.611,33.121,0.953,1.711
20050105,021405,96623,32.859931,-117.485930,15.626,33.111,1.014,1.799
20050105,021435,96654,32.859275,-117.487378,15.625,33.117,1.051,1.852
20050105,021506,96684,32.858603,-117.488835,15.649,33.103,1.126,1.961
20050105,021535,96714,32.857953,-117.490243,15.654,33.105,1.101,1.925
20050105,021605,96743,32.857303,-117.491651,15.664,33.103,1.176,2.034
20050105,021635,96773,32.856653,-117.493020,15.657,33.114,1.113,1.943
20050105,021705,96803,32.856021,-117.494386,15.661,33.115,1.126,1.961
20050105,021735,96834,32.855340,-117.495800,15.649,33.129,1.176,2.034
20050105,021805,96864,32.854673,-117.497258,15.661,33.124,1.038,1.834
20050105,021835,96894,32.853995,-117.498706,15.661,33.128,1.026,1.817
20050105,021905,96923,32.853321,-117.500170,15.665,33.127,1.014,1.799
20050105,021936,96955,32.852646,-117.501626,15.666,33.131,1.076,1.888
20050105,022005,96983,32.851995,-117.503061,15.669,33.132,1.026,1.817
20050105,022036,97014,32.851400,-117.504598,15.673,33.131,0.977,1.746
20050105,022105,97044,32.850835,-117.505970,15.682,33.128,0.977,1.746
20050105,022136,97075,32.850225,-117.507476,15.706,33.114,0.965,1.728
20050105,022206,97105,32.849666,-117.508896,15.710,33.115,0.858,1.572
20050105,022235,97133,32.849071,-117.510383,15.739,33.097,0.858,1.573
20050105,022306,97164,32.848471,-117.511900,15.738,33.102,0.835,1.538
20050105,022336,97194,32.848030,-117.513435,15.748,33.102,0.824,1.522
20050105,022407,97225,32.847643,-117.514990,15.781,33.083,0.800,1.488
20050105,022436,97255,32.847241,-117.516528,15.810,33.069,0.812,1.505
20050105,022506,97285,32.847023,-117.518083,15.824,33.069,0.777,1.454
20050105,022536,97314,32.846830,-117.519658,15.834,33.071,0.688,1.322
20050105,022606,97344,32.846661,-117.521221,15.850,33.067,0.623,1.225
20050105,022636,97374,32.846498,-117.522385,15.861,33.074,0.633,1.242
20050105,022706,97405,32.846405,-117.523205,15.872,33.078,0.623,1.225
20050105,022736,97435,32.846355,-117.523741,15.841,33.112,0.590,1.177
20050105,022807,97465,32.846335,-117.524098,15.852,33.119,0.569,1.146
20050105,022836,97494,32.846325,-117.524378,15.820,33.155,0.590,1.177
20050105,022907,97526,32.846330,-117.524655,15.899,33.110,0.580,1.161
20050105,022936,97554,32.846351,-117.524893,15.914,33.110,0.580,1.161
20050105,023006,97585,32.846343,-117.525141,15.911,33.127,0.590,1.177
20050105,023036,97615,32.846340,-117.525378,15.932,33.127,0.580,1.161
20050105,023107,97645,32.846343,-117.525615,15.933,33.138,0.590,1.177
20050105,023136,97674,32.846350,-117.525818,15.922,33.157,0.580,1.161
20050105,023206,97704,32.846343,-117.526021,15.934,33.162,0.538,1.099
20050105,023236,97734,32.846323,-117.526226,15.961,33.151,0.569,1.146
20050105,023306,97765,32.846340,-117.526413,15.986,33.143,0.612,1.209
20050105,023337,97795,32.846336,-117.526536,15.983,33.156,0.590,1.177
20050105,023407,97826,32.846313,-117.526613,16.002,33.150,0.569,1.146
20050105,023436,97854,32.846288,-117.526616,15.995,33.163,0.569,1.146
20050105,023506,97884,32.846238,-117.526595,16.014,33.156,0.580,1.161
20050105,023536,97915,32.846208,-117.526538,16.020,33.157,0.601,1.193
20050105,023606,97945,32.846178,-117.526456,16.023,33.161,0.580,1.161
20050105,023636,97975,32.846123,-117.526380,16.022,33.167,0.559,1.131
20050105,023707,98006,32.846060,-117.526331,16.019,33.178,0.538,1.099
20050105,023737,98036,32.845963,-117.526306,16.033,33.172,0.528,1.083
20050105,023807,98066,32.845893,-117.526305,16.030,33.178,0.569,1.146
20050105,023836,98095,32.845816,-117.526286,16.034,33.187,0.569,1.146
20050105,023907,98125,32.845743,-117.526271,16.037,33.186,0.559,1.131
20050105,023937,98155,32.845701,-117.526288,16.037,33.190,0.559,1.131
20050105,024006,98184,32.845678,-117.526338,16.036,33.195,0.549,1.115
20050105,024037,98216,32.845636,-117.526393,16.037,33.201,0.518,1.068
20050105,024106,98244,32.845595,-117.526440,16.038,33.205,0.559,1.131
20050105,024137,98275,32.845551,-117.526465,16.039,33.209,0.580,1.161
20050105,024207,98305,32.845523,-117.526481,16.038,33.213,0.569,1.146
20050105,024237,98336,32.845453,-117.526480,16.038,33.220,0.580,1.161
20050105,024307,98366,32.845391,-117.526528,16.037,33.219,0.528,1.083
20050105,024337,98396,32.845341,-117.526616,16.037,33.221,0.549,1.115
20050105,024408,98427,32.845316,-117.526750,16.038,33.223,0.569,1.146
20050105,024438,98457,32.845315,-117.526903,16.038,33.226,0.590,1.177
20050105,024507,98485,32.845318,-117.527060,16.038,33.229,0.569,1.146
20050105,024538,98516,32.845295,-117.527176,16.040,33.228,0.549,1.115
20050105,024607,98546,32.845248,-117.527280,16.040,33.231,0.538,1.099
20050105,024638,98577,32.845235,-117.527420,16.040,33.233,0.538,1.099
20050105,024708,98607,32.845206,-117.527576,16.040,33.234,0.559,1.131
20050105,024738,98637,32.845183,-117.527726,16.042,33.234,0.538,1.099
20050105,024808,98666,32.845145,-117.527880,16.042,33.234,0.538,1.099
20050105,024838,98696,32.845143,-117.528043,16.046,33.232,0.518,1.068
20050105,024907,98726,32.845180,-117.528175,16.047,33.232,0.528,1.083